698  
ASUS42 KKEY 020310  
RWRKEY  
 
FLORIDA REGIONAL WEATHER ROUNDUP FOR THE FLORIDA KEYS  
NATIONAL WEATHER SERVICE KEY WEST FLORIDA  
1100 PM EDT FRI JUL 01 2016  
   
..SOUTH FLORIDA AND THE KEYS
 
 
 
CITY SKY/WX TMP DP RH WIND PRES REMARKS
 
FORT MYERS PTCLDY 83 74 74 CALM 30.08S  
SW REGIONAL AP PTCLDY 84 73 69 CALM 30.08S HX 90  
NAPLES PTCLDY 84 75 74 CALM 30.08S HX 92  
MIAMI CLOUDY 81 75 82 SE5 30.10S  
WEST KENDALL CLOUDY 78 75 90 CALM 30.10S  
HOMESTEAD CLOUDY 79 74 85 SE2 30.10S  
MARATHON CLOUDY 85 75 72 CALM 30.10R HX 93  
BOCA CHICA NAS CLEAR 84 76 76 CALM 30.09R HX 93  
KEY WEST INTL CLEAR 84 79 85 CALM 30.10R HX 96  
   
..INTERNATIONAL WEATHER
 
 
 
CITY SKY/WX TMP DP RH WIND PRES REMARKS
 
NASSAU BAHAMAS PTCLDY 84 77 79 E7 30.15R HX 94  
CANCUN MEXICO PTCLDY 82 77 83 E7 30.07R HX 91  
COZUMEL MEXICO PTCLDY 77 75 94 E5 30.07R  
 
ADJACENT COASTAL WATERS...  
 
STATION/POSITION TIME SKY/WX TEMP WIND PRES WAVE
 
AIR SEA DIR/SP/G HT/PER  
(UTC) (F) (DEG/KT/KT) (MB) (FT/S)  
PULASKI SHOAL LI 0300 85 90/ 3/ 4 1019.3R  
SAND KEY 0250 85 80/ 3/ 5 1019.4R  
SOMBRERO KEY NOT AVBL  
LONG KEY 0200 85 92 110/ 5/ 7 1019.1R  
MOLASSES REEF NOT AVBL  
FOWEY ROCKS 0200 84 85 160/ 9/ 9 1019.9R  
 

 
 
 
CLICK HERE TO GO TO PREVIOUS BULLETINS.

The Nexlab FL Page Main Text Page